| time (UTC) | temp C | wind direction | speed KPH | gust KPH | rain 1hr cm | rain 24hr cm | rain mn cm | humidity % | barometer mb |
| 20260507025113 | 13 | 206 | 0.0 | 16.1 | 0.00 | 0.00 | 0.00 | 60 | 1013.9 |
| 20260507022113 | 13 | 199 | 0.0 | 16.1 | 0.00 | 0.00 | 0.00 | 60 | 1013.6 |
| 20260507015114 | 15 | 187 | 0.0 | 16.1 | 0.00 | 0.00 | 0.00 | 57 | 1013.2 |
| 20260507012114 | 16 | 208 | 0.0 | 16.1 | 0.00 | 0.00 | 0.00 | 54 | 1012.8 |
| 20260507005114 | 16 | 208 | 0.0 | 16.1 | 0.00 | 0.00 | 0.00 | 52 | 1012.7 |
| 20260507002113 | 17 | 178 | 0.0 | 16.1 | 0.00 | 0.00 | 0.00 | 50 | 1012.4 |
| 20260506232112 | 18 | 214 | 0.0 | 16.1 | 0.00 | 0.00 | 0.00 | 47 | 1011.9 |
| 20260506225113 | 18 | 196 | 6.4 | 16.1 | 0.00 | 0.00 | 0.00 | 48 | 1011.8 |
| 20260506222113 | 17 | 199 | 1.6 | 16.1 | 0.00 | 0.00 | 0.00 | 50 | 1011.5 |
| 20260506215114 | 17 | 188 | 3.2 | 16.1 | 0.00 | 0.00 | 0.00 | 52 | 1011.5 |
| 20260506212112 | 17 | 233 | 4.8 | 16.1 | 0.00 | 0.00 | 0.00 | 52 | 1011.7 |
| 20260506205113 | 17 | 129 | 4.8 | 16.1 | 0.00 | 0.00 | 0.00 | 53 | 1012.1 |
| 20260506202112 | 17 | 185 | 6.4 | 16.1 | 0.00 | 0.00 | 0.00 | 55 | 1012.2 |
| 20260506195113 | 17 | 214 | 0.0 | 16.1 | 0.00 | 0.00 | 0.00 | 54 | 1012.2 |
| 20260506192116 | 17 | 107 | 0.0 | 16.1 | 0.00 | 0.00 | 0.00 | 55 | 1012.3 |
| 20260506175113 | 16 | 218 | 4.8 | 16.1 | 0.00 | 0.00 | 0.00 | 53 | 1013.5 |
| 20260506172113 | 15 | 249 | 6.4 | 16.1 | 0.00 | 0.00 | 0.00 | 53 | 1013.5 |
| 20260506165443 | 14 | 326 | 4.8 | 16.1 | 0.00 | 0.00 | 0.00 | 55 | 1013.6 |
| 20260506165114 | 14 | 326 | 4.8 | 16.1 | 0.00 | 0.00 | 0.00 | 55 | 1013.6 |
| 20260506162112 | 13 | 216 | 4.8 | 16.1 | 0.00 | 0.00 | 0.00 | 60 | 1013.7 |
| 20260506155113 | 13 | 300 | 4.8 | 16.1 | 0.00 | 0.00 | 0.00 | 62 | 1013.5 |
| 20260506152113 | 11 | 215 | 9.7 | 16.1 | 0.00 | 0.00 | 0.00 | 71 | 1013.3 |
| 20260506142114 | 10 | 216 | 1.6 | 16.1 | 0.00 | 0.00 | 0.00 | 76 | 1012.4 |
| 20260506135113 | 9 | 213 | 3.2 | 16.1 | 0.00 | 0.00 | 0.00 | 79 | 1012.9 |
| 20260506132114 | 9 | 253 | 4.8 | 16.1 | 0.00 | 0.00 | 0.00 | 80 | 1012.5 |
| 20260506125113 | 8 | 154 | 8.0 | 16.1 | 0.00 | 0.00 | 0.00 | 82 | 1012.1 |
| 20260506122113 | 8 | 196 | 0.0 | 16.1 | 0.00 | 0.00 | 0.00 | 81 | 1011.6 |
| 20260506112203 | 8 | 194 | 0.0 | 16.1 | 0.00 | 0.00 | 0.00 | 81 | 1010.9 |
| 20260506112114 | 8 | 194 | 0.0 | 16.1 | 0.00 | 0.00 | 0.00 | 81 | 1010.9 |
| 20260506102114 | 8 | 225 | 1.6 | 16.1 | 0.00 | 0.00 | 0.00 | 79 | 1011.1 |
| 20260506095115 | 8 | 135 | 0.0 | 16.1 | 0.00 | 0.00 | 0.00 | 77 | 1010.8 |
| 20260506092114 | 8 | 198 | 0.0 | 16.1 | 0.00 | 0.00 | 0.00 | 77 | 1010.0 |
| 20260506085113 | 8 | 213 | 0.0 | 16.1 | 0.00 | 0.00 | 0.00 | 78 | 1009.8 |
| 20260506082113 | 8 | 194 | 0.0 | 16.1 | 0.00 | 0.00 | 0.00 | 78 | 1009.1 |
| 20260506072114 | 8 | 210 | 1.6 | 16.1 | 0.00 | 0.00 | 0.00 | 75 | 1008.4 |
| 20260506062113 | 9 | 235 | 3.2 | 16.1 | 0.00 | 0.00 | 0.00 | 75 | 1008.4 |
| 20260506045114 | 9 | 204 | 1.6 | 16.1 | 0.00 | 0.00 | 0.00 | 79 | 1008.1 |
| 20260506042114 | 9 | 200 | 4.8 | 16.1 | 0.00 | 0.00 | 0.00 | 81 | 1008.2 |
| 20260506035113 | 9 | 189 | 0.0 | 16.1 | 0.00 | 0.00 | 0.00 | 82 | 1008.0 |